Погода в Нави Мумбаи

Индия     19°01′57″N   73°01′46″E
темп.,
°C
ветер,
м/с
пор.,
м/с
влажн.,
%
обл.,
%
осадки,
мм/ч
давл.,
гПа
погр.,
м
5 августа, чт
чт523:30+27зюз9128513 3.4 1008733
02:30+27зюз9118598 1.1 1006702
05:30+27зюз7118298 2.4 1006595
08:30+28зюз81080100 0.9 1007804
11:30+28зюз81079100 1.6 1007859
14:30+28юз91078100 0.6 1006873
17:30+28юз81180100 1.2 1005756
20:30+27юз81182100 0.8 1006621
6 августа, пт
пт623:30+27юз81181100 2.0 1007620
02:30+27юз81182100 0.9 1005623
05:30+27юз81185100 2.3 1005599
08:30+28зюз7108183 0.9 1006772
11:30+28зюз8107948 1.8 1006810
14:30+29юз910765 0.6 1005874
17:30+28зюз8108147 1.6 1004641
20:30+27зюз8108664 2.1 1005533
7 августа, сб
сб723:30+27юз798530 4.6 1006516
02:30+27зюз7108392 2.5 1004515
05:30+27зюз798147 6.0 1005498
08:30+27зюз8108219 2.1 1006565
11:30+28зюз797939 4.6 1007737
14:30+28зюз797633 1.5 1005756
17:30+28юз78809 2.6 1005712
20:30+27юз798699 1.7 1006571
8 августа, вс
вс823:30+26юз79875 3.6 1007509
02:30+26юз698594 2.1 1005439
05:30+27юз688328 4.2 1005442
08:30+28юз6879100 2.1 1007558
11:30+29юз6772100 2.8 1007769
14:30+29юз787392 0.2 1006788
17:30+28юз67765 0.4 1005646
20:30+27юз578014 0.6 1007439
9 августа, пн
пн923:30+27ююз47827 1.6 1008406
02:30+27ююз588236 1.0 1006516
05:30+27ююз478042 2.1 1006390
08:30+28ююз477648 0.6 1008571
11:30+29юз677119 1.4 1008834
14:30+29юз78725 0.5 1007836
17:30+28юз67755 0.9 1007617
20:30+27юз57815 1.0 1008388